GLD1121 SAZS-SCIE

Flight info

Callsign GLD1121
Flight time N/A
Altitude 14000
Route ALGI2C ALGIL DCT CHP DCT TESEX DCT GEDIN DCT ANGOL ANGO4B
Aircraft TBM9/M-SDFGIRY/S

Departure

Time 2026-05-09 16:35
Airport Teniente Luis Candelaria International Airport (SAZS)

Arrival

Time N/A
Airport Carriel Sur International Airport (SCIE)
Time Latitude Longitude Altitude Speed Heading
2026-05-09 16:30 -41.15174 -71.15138 2759 ft 0 kts 112°
2026-05-09 16:31 -41.15175 -71.15136 2759 ft 2 kts 110°
2026-05-09 16:31 -41.15187 -71.15096 2759 ft 8 kts 112°
2026-05-09 16:31 -41.15219 -71.15005 2760 ft 15 kts 121°
2026-05-09 16:31 -41.15274 -71.14855 2761 ft 22 kts 114°
2026-05-09 16:32 -41.15348 -71.14642 2763 ft 28 kts 108°
2026-05-09 16:32 -41.15404 -71.14495 2764 ft 23 kts 137°
2026-05-09 16:32 -41.15471 -71.14488 2764 ft 0 kts 210°
2026-05-09 16:34 -41.15479 -71.14493 2764 ft 4 kts 205°
2026-05-09 16:34 -41.15528 -71.14579 2763 ft 19 kts 286°
2026-05-09 16:35 -41.15422 -71.14897 2761 ft 62 kts 295°
2026-05-09 16:35 -41.15186 -71.15583 2755 ft 98 kts 294°
2026-05-09 16:35 -41.14886 -71.16440 2937 ft 102 kts 294°
2026-05-09 16:35 -41.14544 -71.17336 3379 ft 104 kts 300°
2026-05-09 16:36 -41.14212 -71.18154 3975 ft 90 kts 293°
2026-05-09 16:36 -41.13415 -71.20586 5047 ft 128 kts 306°
2026-05-09 16:37 -41.12877 -71.21355 5779 ft 104 kts 300°
2026-05-09 16:37 -41.12729 -71.22328 6020 ft 121 kts 242°
2026-05-09 16:37 -41.13169 -71.23459 6314 ft 149 kts 253°
2026-05-09 16:37 -41.12869 -71.24836 6748 ft 178 kts 307°
2026-05-09 16:38 -41.11701 -71.25636 6984 ft 203 kts 354°
2026-05-09 16:38 -41.10297 -71.25286 7272 ft 211 kts 26°
2026-05-09 16:38 -41.08922 -71.24490 7550 ft 220 kts 28°
2026-05-09 16:38 -41.07523 -71.23670 7984 ft 221 kts 28°
2026-05-09 16:39 -41.06157 -71.22894 8701 ft 205 kts 28°
2026-05-09 16:39 -41.04877 -71.22227 9598 ft 192 kts 28°
2026-05-09 16:39 -41.03626 -71.21608 10080 ft 196 kts 28°
2026-05-09 16:39 -41.02318 -71.20981 10586 ft 198 kts 28°
2026-05-09 16:40 -41.01035 -71.20371 11097 ft 199 kts 28°
2026-05-09 16:40 -40.99709 -71.19746 11624 ft 200 kts 27°
2026-05-09 16:42 -40.90322 -71.15247 14374 ft 225 kts 32°
2026-05-09 16:42 -40.88824 -71.14400 14375 ft 244 kts 25°
2026-05-09 16:42 -40.87091 -71.13976 14373 ft 263 kts
2026-05-09 16:42 -40.85219 -71.13954 14375 ft 273 kts
2026-05-09 16:43 -40.83402 -71.13968 14374 ft 278 kts
2026-05-09 16:43 -40.81565 -71.13869 14368 ft 281 kts
2026-05-09 16:43 -40.79603 -71.13718 14364 ft 283 kts
2026-05-09 16:43 -40.77626 -71.13600 14363 ft 285 kts
2026-05-09 16:44 -40.75634 -71.13499 14360 ft 288 kts
2026-05-09 16:44 -40.73634 -71.13385 14360 ft 288 kts
2026-05-09 16:44 -40.71628 -71.13270 14359 ft 288 kts
2026-05-09 16:44 -40.69627 -71.13156 14360 ft 288 kts
2026-05-09 16:45 -40.67626 -71.13043 14364 ft 288 kts
2026-05-09 16:45 -40.65622 -71.12930 14360 ft 287 kts
2026-05-09 16:45 -40.63625 -71.12816 14362 ft 288 kts
2026-05-09 16:45 -40.61616 -71.12701 14354 ft 289 kts
2026-05-09 16:46 -40.59613 -71.12586 14358 ft 288 kts
2026-05-09 16:46 -40.57611 -71.12474 14359 ft 288 kts
2026-05-09 16:46 -40.55617 -71.12361 14359 ft 287 kts
2026-05-09 16:46 -40.53616 -71.12247 14360 ft 287 kts
2026-05-09 16:47 -40.51618 -71.12134 14367 ft 287 kts
2026-05-09 16:47 -40.49619 -71.12021 14363 ft 288 kts
2026-05-09 16:47 -40.47622 -71.11908 14365 ft 287 kts
2026-05-09 16:47 -40.45630 -71.11795 14372 ft 288 kts
2026-05-09 16:48 -40.43625 -71.11681 14367 ft 290 kts
2026-05-09 16:48 -40.41608 -71.11567 14368 ft 290 kts
2026-05-09 16:48 -40.39610 -71.11452 14365 ft 291 kts
2026-05-09 16:48 -40.37582 -71.11338 14361 ft 292 kts
2026-05-09 16:49 -40.35551 -71.11225 14371 ft 292 kts
2026-05-09 16:49 -40.33519 -71.11112 14371 ft 292 kts
2026-05-09 16:49 -40.31499 -71.10999 14369 ft 291 kts
2026-05-09 16:50 -40.27435 -71.10768 14360 ft 293 kts
2026-05-09 16:50 -40.25397 -71.10653 14359 ft 293 kts
2026-05-09 16:50 -40.23362 -71.10540 14363 ft 293 kts
2026-05-09 16:50 -40.21326 -71.10427 14359 ft 294 kts
2026-05-09 16:51 -40.19281 -71.10310 14359 ft 294 kts
2026-05-09 16:51 -40.17236 -71.10196 14359 ft 294 kts
2026-05-09 16:51 -40.15189 -71.10082 14355 ft 294 kts
2026-05-09 16:51 -40.13138 -71.09967 14356 ft 295 kts
2026-05-09 16:52 -40.11084 -71.09851 14356 ft 295 kts
2026-05-09 16:52 -40.09035 -71.09736 14355 ft 295 kts
2026-05-09 16:52 -40.06983 -71.09623 14354 ft 295 kts
2026-05-09 16:52 -40.04925 -71.09582 14346 ft 297 kts 358°
2026-05-09 16:53 -40.02891 -71.10123 14345 ft 299 kts 347°
2026-05-09 16:53 -40.00867 -71.10764 14347 ft 299 kts 348°
2026-05-09 16:53 -39.98837 -71.11367 14347 ft 299 kts 348°
2026-05-09 16:53 -39.96809 -71.11982 14346 ft 299 kts 347°
2026-05-09 16:54 -39.94808 -71.12604 14359 ft 300 kts 347°
2026-05-09 16:54 -39.92775 -71.13231 14355 ft 300 kts 347°
2026-05-09 16:54 -39.90743 -71.13850 14359 ft 300 kts 347°
2026-05-09 16:54 -39.88710 -71.14474 14363 ft 300 kts 347°
2026-05-09 16:55 -39.86672 -71.15099 14375 ft 301 kts 347°
2026-05-09 16:55 -39.84632 -71.15722 14377 ft 301 kts 347°
2026-05-09 16:55 -39.82590 -71.16346 14376 ft 302 kts 347°
2026-05-09 16:55 -39.80547 -71.16970 14378 ft 302 kts 347°
2026-05-09 16:56 -39.78499 -71.17596 14387 ft 303 kts 346°
2026-05-09 16:56 -39.76449 -71.18221 14380 ft 303 kts 346°
2026-05-09 16:56 -39.74394 -71.18848 14387 ft 303 kts 346°
2026-05-09 16:56 -39.72336 -71.19476 14384 ft 304 kts 346°
2026-05-09 16:57 -39.70280 -71.20103 14387 ft 304 kts 346°
2026-05-09 16:57 -39.68219 -71.20731 14383 ft 304 kts 346°
2026-05-09 16:57 -39.66158 -71.21358 14381 ft 305 kts 346°
2026-05-09 16:57 -39.64090 -71.21986 14385 ft 306 kts 345°
2026-05-09 16:58 -39.62013 -71.22616 14387 ft 307 kts 345°
2026-05-09 16:58 -39.59927 -71.23249 14380 ft 308 kts 345°
2026-05-09 16:58 -39.57835 -71.23885 14358 ft 308 kts 345°
2026-05-09 16:58 -39.55759 -71.24514 14360 ft 304 kts 344°
2026-05-09 16:59 -39.53706 -71.25142 14372 ft 305 kts 344°
2026-05-09 16:59 -39.51632 -71.25771 14367 ft 307 kts 344°
2026-05-09 16:59 -39.49547 -71.26398 14364 ft 309 kts 344°
2026-05-09 16:59 -39.47451 -71.27030 14369 ft 309 kts 344°
2026-05-09 17:00 -39.45347 -71.27670 14360 ft 310 kts 343°
2026-05-09 17:00 -39.43243 -71.28303 14359 ft 311 kts 343°
2026-05-09 17:00 -39.41132 -71.28941 14370 ft 312 kts 343°
2026-05-09 17:00 -39.39010 -71.29581 14351 ft 313 kts 343°
2026-05-09 17:01 -39.36898 -71.30215 14362 ft 310 kts 342°
2026-05-09 17:01 -39.34790 -71.30858 14364 ft 313 kts 342°
2026-05-09 17:01 -39.32658 -71.31502 14349 ft 315 kts 343°
2026-05-09 17:01 -39.30513 -71.32142 14336 ft 316 kts 342°
2026-05-09 17:02 -39.28416 -71.32767 14367 ft 312 kts 342°
2026-05-09 17:02 -39.26262 -71.33427 14352 ft 316 kts 342°
2026-05-09 17:02 -39.24113 -71.34073 14347 ft 318 kts 342°
2026-05-09 17:02 -39.21956 -71.34709 14337 ft 318 kts 341°
2026-05-09 17:03 -39.19807 -71.35354 14339 ft 317 kts 341°
2026-05-09 17:04 -39.04803 -71.39856 14330 ft 320 kts 341°
2026-05-09 17:05 -39.02630 -71.40497 14323 ft 319 kts 341°
2026-05-09 17:05 -39.00475 -71.41139 14323 ft 317 kts 340°
2026-05-09 17:05 -38.98328 -71.41786 14325 ft 317 kts 340°
2026-05-09 17:05 -38.96178 -71.42438 14323 ft 316 kts 339°
2026-05-09 17:06 -38.94168 -71.43411 14307 ft 303 kts 323°
2026-05-09 17:06 -38.92446 -71.44855 14314 ft 288 kts 309°
2026-05-09 17:06 -38.91064 -71.46604 14317 ft 272 kts 297°
2026-05-09 17:06 -38.89904 -71.48495 14319 ft 269 kts 295°
2026-05-09 17:07 -38.88730 -71.50381 14313 ft 272 kts 296°
2026-05-09 17:07 -38.88343 -71.50997 14307 ft 273 kts 296°
2026-05-09 17:07 -38.86328 -71.54215 14304 ft 278 kts 296°
2026-05-09 17:07 -38.85130 -71.56126 14297 ft 278 kts 296°
2026-05-09 17:08 -38.83921 -71.58057 14300 ft 277 kts 296°
2026-05-09 17:08 -38.81482 -71.61969 14301 ft 284 kts 296°
2026-05-09 17:08 -38.80234 -71.63963 14291 ft 290 kts 296°
2026-05-09 17:09 -38.78962 -71.65992 14309 ft 293 kts 296°
2026-05-09 17:09 -38.77669 -71.68042 14291 ft 298 kts 297°
2026-05-09 17:09 -38.76365 -71.70123 14280 ft 301 kts 297°
2026-05-09 17:09 -38.75051 -71.72220 14281 ft 301 kts 297°
2026-05-09 17:10 -38.73738 -71.74305 14274 ft 302 kts 297°
2026-05-09 17:10 -38.72419 -71.76407 14270 ft 302 kts 297°
2026-05-09 17:10 -38.71102 -71.78504 14269 ft 302 kts 297°
2026-05-09 17:10 -38.69783 -71.80599 14271 ft 302 kts 297°
2026-05-09 17:11 -38.68464 -71.82692 14260 ft 301 kts 297°
2026-05-09 17:11 -38.67151 -71.84778 14260 ft 301 kts 297°
2026-05-09 17:11 -38.65839 -71.86862 14260 ft 301 kts 297°
2026-05-09 17:11 -38.64521 -71.88952 14261 ft 303 kts 297°
2026-05-09 17:12 -38.63199 -71.91042 14259 ft 303 kts 297°
2026-05-09 17:12 -38.61867 -71.93147 14254 ft 303 kts 297°
2026-05-09 17:12 -38.60545 -71.95247 14255 ft 304 kts 297°
2026-05-09 17:12 -38.59213 -71.97353 14258 ft 305 kts 298°
2026-05-09 17:13 -38.57874 -71.99463 14248 ft 305 kts 298°
2026-05-09 17:13 -38.56538 -72.01569 14251 ft 305 kts 298°
2026-05-09 17:13 -38.55204 -72.03679 14252 ft 305 kts 298°
2026-05-09 17:13 -38.53868 -72.05788 14248 ft 306 kts 298°
2026-05-09 17:14 -38.52535 -72.07886 14249 ft 305 kts 298°
2026-05-09 17:14 -38.51190 -72.10000 14248 ft 306 kts 298°
2026-05-09 17:14 -38.49651 -72.11946 14258 ft 319 kts 312°
2026-05-09 17:14 -38.47766 -72.13512 14270 ft 327 kts 323°
2026-05-09 17:15 -38.45777 -72.14926 14257 ft 328 kts 322°
2026-05-09 17:15 -38.43800 -72.16371 14254 ft 328 kts 322°
2026-05-09 17:15 -38.41817 -72.17811 14252 ft 329 kts 323°
2026-05-09 17:15 -38.39820 -72.19243 14247 ft 329 kts 323°
2026-05-09 17:16 -38.37828 -72.20674 14244 ft 329 kts 323°
2026-05-09 17:17 -38.23867 -72.30719 14251 ft 331 kts 323°
2026-05-09 17:18 -38.21865 -72.32154 14250 ft 331 kts 323°
2026-05-09 17:18 -38.20536 -72.33107 14250 ft 331 kts 323°
2026-05-09 17:18 -38.18529 -72.34547 14250 ft 331 kts 323°
2026-05-09 17:18 -38.16522 -72.35983 14248 ft 331 kts 323°
2026-05-09 17:19 -38.14510 -72.37421 14249 ft 332 kts 323°
2026-05-09 17:19 -38.12503 -72.38857 14245 ft 331 kts 324°
2026-05-09 17:19 -38.10500 -72.40292 14251 ft 331 kts 324°
2026-05-09 17:19 -38.08494 -72.41723 14248 ft 331 kts 324°
2026-05-09 17:20 -38.06481 -72.43157 14252 ft 331 kts 324°
2026-05-09 17:20 -38.04472 -72.44591 14255 ft 331 kts 324°
2026-05-09 17:20 -38.02465 -72.46024 14244 ft 331 kts 324°
2026-05-09 17:20 -38.00455 -72.47455 14251 ft 332 kts 324°
2026-05-09 17:21 -37.98438 -72.48889 14249 ft 332 kts 324°
2026-05-09 17:21 -37.96422 -72.50325 14256 ft 333 kts 324°
2026-05-09 17:21 -37.94394 -72.51740 14260 ft 333 kts 325°
2026-05-09 17:21 -37.92350 -72.53115 14263 ft 333 kts 326°
2026-05-09 17:22 -37.90348 -72.54570 14257 ft 331 kts 322°
2026-05-09 17:22 -37.88377 -72.56080 14267 ft 331 kts 323°
2026-05-09 17:22 -37.86360 -72.57505 14277 ft 333 kts 325°
2026-05-09 17:22 -37.84326 -72.58899 14284 ft 332 kts 325°
2026-05-09 17:23 -37.82309 -72.60326 14277 ft 332 kts 324°
2026-05-09 17:23 -37.80302 -72.61768 14273 ft 332 kts 324°
2026-05-09 17:23 -37.78286 -72.63197 14296 ft 332 kts 324°
2026-05-09 17:23 -37.76266 -72.64616 14292 ft 332 kts 324°
2026-05-09 17:25 -37.66065 -72.71363 14361 ft 338 kts 340°
2026-05-09 17:25 -37.63803 -72.72182 14373 ft 338 kts 339°
2026-05-09 17:25 -37.61557 -72.73058 14375 ft 338 kts 338°
2026-05-09 17:25 -37.59311 -72.73933 14387 ft 338 kts 339°
2026-05-09 17:26 -37.57045 -72.74768 14372 ft 339 kts 341°
2026-05-09 17:26 -37.54770 -72.75556 14365 ft 339 kts 341°
2026-05-09 17:26 -37.52487 -72.76320 14368 ft 339 kts 340°
2026-05-09 17:26 -37.50256 -72.77248 14350 ft 338 kts 336°
2026-05-09 17:27 -37.48020 -72.78237 14152 ft 344 kts 338°
2026-05-09 17:27 -37.45728 -72.79090 13861 ft 342 kts 341°
2026-05-09 17:27 -37.43458 -72.79881 13538 ft 338 kts 341°
2026-05-09 17:27 -37.41220 -72.80730 13228 ft 335 kts 339°
2026-05-09 17:28 -37.39003 -72.81596 12770 ft 332 kts 340°
2026-05-09 17:28 -37.36819 -72.82419 12572 ft 324 kts 345°
2026-05-09 17:28 -37.34668 -72.83215 12314 ft 321 kts 345°
2026-05-09 17:28 -37.32537 -72.84020 12035 ft 319 kts 345°
2026-05-09 17:29 -37.30418 -72.84822 11746 ft 318 kts 345°
2026-05-09 17:29 -37.28305 -72.85614 11458 ft 316 kts 345°
2026-05-09 17:29 -37.26199 -72.86401 11170 ft 315 kts 346°
2026-05-09 17:29 -37.24105 -72.87188 10882 ft 314 kts 345°
2026-05-09 17:30 -37.22016 -72.87973 10607 ft 313 kts 346°
2026-05-09 17:30 -37.19936 -72.88750 10320 ft 311 kts 346°
2026-05-09 17:30 -37.17863 -72.89527 10025 ft 310 kts 346°
2026-05-09 17:30 -37.15803 -72.90299 9725 ft 308 kts 346°
2026-05-09 17:31 -37.13801 -72.91048 9447 ft 306 kts 346°
2026-05-09 17:31 -37.11728 -72.91827 9159 ft 303 kts 346°
2026-05-09 17:32 -37.03752 -72.94804 8074 ft 295 kts 346°
2026-05-09 17:32 -37.01795 -72.95536 7796 ft 293 kts 346°
2026-05-09 17:32 -36.99842 -72.96262 7541 ft 291 kts 346°
2026-05-09 17:33 -36.97924 -72.96975 7193 ft 292 kts 346°
2026-05-09 17:33 -36.95979 -72.97696 6867 ft 291 kts 346°
2026-05-09 17:33 -36.94048 -72.98417 6587 ft 288 kts 346°
2026-05-09 17:33 -36.92135 -72.99134 6310 ft 286 kts 346°
2026-05-09 17:34 -36.90214 -72.99703 6048 ft 281 kts 359°
2026-05-09 17:35 -36.79788 -72.94678 4183 ft 268 kts 26°
2026-05-09 17:35 -36.78101 -72.93712 3906 ft 267 kts 28°
2026-05-09 17:36 -36.76265 -72.93340 3747 ft 272 kts 359°
2026-05-09 17:36 -36.74474 -72.94068 3573 ft 274 kts 330°
2026-05-09 17:36 -36.73198 -72.95630 3334 ft 244 kts 297°
2026-05-09 17:36 -36.72819 -72.97526 3283 ft 214 kts 260°
2026-05-09 17:37 -36.72963 -72.99181 3107 ft 185 kts 268°
2026-05-09 17:37 -36.72715 -73.00675 3059 ft 165 kts 278°
2026-05-09 17:37 -36.72381 -73.01951 3050 ft 134 kts 280°
2026-05-09 17:37 -36.72172 -73.02903 2824 ft 107 kts 255°